MOLNIYA 3-24

Satellite information

Favourite Embed

Satellite Type and Status

PAYLOADIN ORBIT

Key statistics

Satellite MOLNIYA 3-24 at a glance.

Uptime

14711

Days in orbit

Revolutions

≈ 2.6

Per day

Orbit

HEO

HEO

Inclination

62.4

Latest

Satellite identification and parameters

Extended collection of information and parameters for MOLNIYA 3-24.

Object identification

Identified? True

Debris? False

Object name: MOLNIYA 3-24

International designator: 1985-040A

Object number (NORAD): 15738

Object ID (CCSDS): 15738

Country: COMMONWEALTH OF INDEPENDENT STATES (CIS)

Current information (Y/N): Y

RCS size: LARGE

Orbital parameters

Period: 563.223 minutes

Inclination: 62.3896 deg

SMA: 22591.6 km

Apoapsis: 31708.297 km

Periapsis: 718.632 km

RAAN: 210.1685 deg

Eccentricy: 0.68586698

Argument of periapsis: 254.3835 deg

Mean anomaly: 25.5509 deg

Mean motion: 2.55671484 rev/day

Mean motion (dot): 0.00000144 rev/day2

B* drag term: -0.0008664348 1/REarth

Two-line elements (TLE)

Creation date: Sept. 1, 2025, 7:24 p.m.

Reference frame: TEME

Reference center: EARTH

Epoch: Sept. 1, 2025, 1:53 a.m. UTC

TLE line 0: 0 MOLNIYA 3-24

TLE line 1: 1 15738U 85040A 25244.07878530 .00000144 00000-0 -86643-3 0 9996

TLE line 2: 2 15738 62.3896 210.1685 6858670 254.3835 25.5509 2.55671484333820

Live tracking on map

Real-time ground track for satellite MOLNIYA 3-24.

In-orbit conjunctions

There are no conjunctions computed for MOLNIYA 3-24, at the moment. Check back to stay up to date, as we update our databases every day.

Go to all conjunctions

Associated space launch

Molniya communication satellites operating from a highly elliptical orbit

MOLNIYA 3-24 was lifted into orbit during the mission ‘Molniya-M | Molniya-3 39L’, on board a Molniya-M space rocket.

The launch took place on May 29, 1985, 7:40 a.m. from 43/4 (43R).

For more information about the launch, click the button.

Launch to space Molniya-M | Molniya-3 39L
Molniya-M | Molniya-3 39L

Agency: N/A

Status: Launch Successful

Launch date: May 29, 1985, 7:40 a.m. UTC

Rocket: Molniya-M

Launch pad: 43/4 (43R)

Location: Plesetsk Cosmodrome, Russian Federation

...

Latest news about this satellite

There are no fresh news available about this satellite. Check back as we update our databases every day.


Newsletter sign-up

Weekly statistics, charts and insights to help you stay on top of the space industry.